Location: Woodstock
(35.2731°N, 89.9823°W)
Time: 18:29:16
(UTC+00:00)

Vanguard 3 - Pass Details

Date: 28 May 2025
Orbit: 508 x 3215 km, 33.3° (Epoch: 14 June)

Event Time Altitude Azimuth Distance (km) Brightness Sun altitude
Rises 02:31:16 0° 183° (S) 7,145 11.6 -15.2°
Enters shadow 02:38:43 - 165° (SSE) 6,224 11.1 -16.3°
Reaches altitude 10° 02:43:16 10° 152° (SSE) 5,784 - -17.0°
Maximum altitude 02:46:07 11° 142° (SE) 5,584 - -17.4°
Drops below altitude 10° 02:48:51 10° 132° (SE) 5,466 - -17.8°
Sets 02:58:08 0° 100° (E) 5,730 - -19.1°
